Time,TemperatureF,DewpointF,PressureIn,WindDirection,WindDirectionDegrees,WindSpeedMPH,WindSpeedGustMPH,Humidity,HourlyPrecipIn,Conditions,Clouds,dailyrainin,SoftwareType,DateUTC
2013-06-13 00:02:00,58.8,54.3,30.06,NW,315,0.0,0.0,85,0.00,CLR,SKC,0.26,WeatherDisplay:10.37,2013-06-12 22:02:00,
2013-06-13 00:07:00,59.2,54.3,30.06,NNE,22,0.0,0.0,84,0.00,CLR,SKC,0.26,WeatherDisplay:10.37,2013-06-12 22:07:00,
2013-06-13 00:12:00,59.2,54.3,30.06,NNE,22,0.0,0.0,84,0.00,CLR,SKC,0.26,WeatherDisplay:10.37,2013-06-12 22:12:00,
2013-06-13 00:17:00,59.5,54.7,30.06,North,0,0.7,2.3,84,0.00,CLR,SKC,0.26,WeatherDisplay:10.37,2013-06-12 22:17:00,
2013-06-13 00:22:00,59.9,54.4,30.06,West,270,0.4,1.2,82,0.00,CLR,SKC,0.26,WeatherDisplay:10.37,2013-06-12 22:22:00,
2013-06-13 00:27:00,60.4,54.2,30.06,NW,315,1.7,1.7,80,0.00,CLR,SKC,0.26,WeatherDisplay:10.37,2013-06-12 22:27:00,
2013-06-13 00:32:00,60.6,54.4,30.06,WNW,292,0.0,1.2,80,0.00,CLR,SKC,0.26,WeatherDisplay:10.37,2013-06-12 22:32:00,
2013-06-13 00:37:00,60.6,54.4,30.06,NNE,22,0.0,0.0,80,0.00,CLR,SKC,0.26,WeatherDisplay:10.37,2013-06-12 22:37:00,
2013-06-13 00:42:00,61.0,54.4,30.06,NW,315,1.3,1.3,79,0.00,CLR,SKC,0.26,WeatherDisplay:10.37,2013-06-12 22:42:00,
2013-06-13 00:47:00,61.0,54.4,30.06,West,270,1.6,2.3,79,0.00,CLR,SKC,0.26,WeatherDisplay:10.37,2013-06-12 22:47:00,
2013-06-13 00:52:00,61.0,54.4,30.06,West,270,1.6,1.6,79,0.00,CLR,SKC,0.26,WeatherDisplay:10.37,2013-06-12 22:52:00,
2013-06-13 00:57:00,61.0,54.1,30.06,NE,45,0.0,0.0,78,0.00,CLR,SKC,0.26,WeatherDisplay:10.37,2013-06-12 22:57:00,
2013-06-13 01:02:00,61.0,53.7,30.06,WNW,292,0.0,0.0,77,0.00,CLR,SKC,0.26,WeatherDisplay:10.37,2013-06-12 23:02:00,
2013-06-13 01:07:00,60.6,53.7,30.06,WNW,292,0.0,0.0,78,0.00,CLR,SKC,0.26,WeatherDisplay:10.37,2013-06-12 23:07:00,
2013-06-13 01:12:00,60.1,53.5,30.06,NW,315,0.0,0.0,79,0.00,CLR,SKC,0.26,WeatherDisplay:10.37,2013-06-12 23:12:00,
2013-06-13 01:17:00,59.7,53.5,30.06,NW,315,0.0,0.0,80,0.00,CLR,SKC,0.26,WeatherDisplay:10.37,2013-06-12 23:17:00,
2013-06-13 01:22:00,59.4,53.2,30.06,NW,315,0.0,1.2,80,0.00,CLR,SKC,0.26,WeatherDisplay:10.37,2013-06-12 23:22:00,
2013-06-13 01:27:00,59.4,53.2,30.06,NW,315,1.0,1.3,80,0.00,CLR,SKC,0.26,WeatherDisplay:10.37,2013-06-12 23:27:00,
2013-06-13 01:32:00,59.2,53.0,30.06,NW,315,1.0,1.3,80,0.00,CLR,SKC,0.26,WeatherDisplay:10.37,2013-06-12 23:32:00,
2013-06-13 01:37:00,59.7,53.2,30.06,NW,315,4.5,4.6,79,0.00,CLR,SKC,0.26,WeatherDisplay:10.37,2013-06-12 23:37:00,
2013-06-13 01:42:00,59.9,53.0,30.06,NW,315,0.7,1.2,78,0.00,CLR,SKC,0.26,WeatherDisplay:10.37,2013-06-12 23:42:00,
2013-06-13 01:47:00,60.4,53.2,30.06,North,0,0.0,0.0,77,0.00,CLR,SKC,0.26,WeatherDisplay:10.37,2013-06-12 23:47:00,
2013-06-13 01:52:00,60.6,53.4,30.06,NNW,338,1.1,1.2,77,0.00,CLR,SKC,0.26,WeatherDisplay:10.37,2013-06-12 23:52:00,
2013-06-13 01:57:00,60.1,52.8,30.06,NNE,22,0.7,2.3,77,0.00,CLR,SKC,0.26,WeatherDisplay:10.37,2013-06-12 23:57:00,
2013-06-13 02:02:00,60.1,52.8,30.06,NNE,22,0.0,0.0,77,0.00,CLR,SKC,0.26,WeatherDisplay:10.37,2013-06-13 00:02:00,
2013-06-13 02:07:00,60.1,52.8,30.06,NW,315,2.5,5.8,77,0.00,CLR,SKC,0.26,WeatherDisplay:10.37,2013-06-13 00:07:00,
2013-06-13 02:12:00,59.7,52.8,30.06,NW,315,1.5,3.5,78,0.00,CLR,SKC,0.26,WeatherDisplay:10.37,2013-06-13 00:12:00,
2013-06-13 02:17:00,59.7,52.8,30.05,NW,315,0.0,0.0,78,0.00,CLR,SKC,0.26,WeatherDisplay:10.37,2013-06-13 00:17:00,
2013-06-13 02:22:00,59.4,52.5,30.05,NNW,338,0.0,0.0,78,0.00,CLR,SKC,0.26,WeatherDisplay:10.37,2013-06-13 00:22:00,
2013-06-13 02:27:00,58.8,52.3,30.04,NNW,338,0.0,0.0,79,0.00,CLR,SKC,0.26,WeatherDisplay:10.37,2013-06-13 00:27:00,
2013-06-13 02:32:00,58.8,52.3,30.05,NNW,338,0.0,0.0,79,0.00,CLR,SKC,0.26,WeatherDisplay:10.37,2013-06-13 00:32:00,
2013-06-13 02:37:00,58.3,51.8,30.05,NNW,338,0.0,0.0,79,0.00,CLR,SKC,0.26,WeatherDisplay:10.37,2013-06-13 00:37:00,
2013-06-13 02:42:00,57.9,51.8,30.04,North,0,0.1,1.2,80,0.00,CLR,SKC,0.26,WeatherDisplay:10.37,2013-06-13 00:42:00,
2013-06-13 02:47:00,58.1,52.0,30.05,North,0,0.3,0.0,80,0.00,CLR,SKC,0.26,WeatherDisplay:10.37,2013-06-13 00:47:00,
2013-06-13 02:52:00,58.3,52.1,30.04,NNW,338,0.0,2.3,80,0.00,CLR,SKC,0.26,WeatherDisplay:10.37,2013-06-13 00:52:00,
2013-06-13 02:57:00,58.6,52.1,30.04,WNW,292,2.7,3.4,79,0.00,CLR,SKC,0.26,WeatherDisplay:10.37,2013-06-13 00:57:00,
2013-06-13 03:02:00,59.0,52.5,30.04,North,0,2.2,2.3,79,0.00,CLR,SKC,0.26,WeatherDisplay:10.37,2013-06-13 01:02:00,
2013-06-13 03:07:00,59.5,52.7,30.04,NNE,22,2.4,4.6,78,0.00,CLR,SKC,0.26,WeatherDisplay:10.37,2013-06-13 01:07:00,
2013-06-13 03:12:00,59.7,52.5,30.04,NNE,22,2.5,4.6,77,0.00,CLR,SKC,0.26,WeatherDisplay:10.37,2013-06-13 01:12:00,
2013-06-13 03:17:00,60.1,52.5,30.04,NW,315,2.4,4.6,76,0.00,CLR,SKC,0.26,WeatherDisplay:10.37,2013-06-13 01:17:00,
2013-06-13 03:22:00,60.4,52.8,30.04,NNW,338,0.7,2.3,76,0.00,CLR,SKC,0.26,WeatherDisplay:10.37,2013-06-13 01:22:00,
2013-06-13 03:27:00,60.4,52.8,30.04,NNW,338,0.7,1.2,76,0.00,CLR,SKC,0.26,WeatherDisplay:10.37,2013-06-13 01:27:00,
2013-06-13 03:32:00,60.6,53.0,30.04,NNW,338,3.0,3.5,76,0.00,CLR,SKC,0.26,WeatherDisplay:10.37,2013-06-13 01:32:00,
2013-06-13 03:37:00,60.6,52.6,30.04,NNW,338,2.3,3.5,75,0.00,CLR,SKC,0.26,WeatherDisplay:10.37,2013-06-13 01:37:00,
2013-06-13 03:42:00,60.4,52.5,30.04,NNW,338,0.0,2.3,75,0.00,CLR,SKC,0.26,WeatherDisplay:10.37,2013-06-13 01:42:00,
2013-06-13 03:47:00,60.1,52.1,30.04,North,0,0.1,0.0,75,0.00,CLR,SKC,0.26,WeatherDisplay:10.37,2013-06-13 01:47:00,
2013-06-13 03:52:00,60.1,52.1,30.04,NW,315,0.0,0.0,75,0.00,CLR,SKC,0.26,WeatherDisplay:10.37,2013-06-13 01:52:00,
2013-06-13 03:57:00,59.7,51.8,30.05,North,0,1.1,1.6,75,0.00,CLR,SKC,0.26,WeatherDisplay:10.37,2013-06-13 01:57:00,
2013-06-13 04:02:00,59.5,52.0,30.05,North,0,0.9,3.5,76,0.00,CLR,SKC,0.26,WeatherDisplay:10.37,2013-06-13 02:02:00,
2013-06-13 04:07:00,59.5,52.0,30.05,North,0,0.9,1.2,76,0.00,CLR,SKC,0.26,WeatherDisplay:10.37,2013-06-13 02:07:00,
2013-06-13 04:12:00,59.5,52.0,30.05,NW,315,0.0,0.0,76,0.00,CLR,SKC,0.26,WeatherDisplay:10.37,2013-06-13 02:12:00,
2013-06-13 04:17:00,59.2,52.0,30.05,NE,45,0.0,0.0,77,0.00,CLR,SKC,0.26,WeatherDisplay:10.37,2013-06-13 02:17:00,
2013-06-13 04:22:00,58.8,51.6,30.05,East,90,0.0,0.0,77,0.00,CLR,SKC,0.26,WeatherDisplay:10.37,2013-06-13 02:22:00,
2013-06-13 04:27:00,58.3,51.8,30.05,ENE,68,0.0,0.0,79,0.00,CLR,SKC,0.26,WeatherDisplay:10.37,2013-06-13 02:27:00,
2013-06-13 04:32:00,57.9,51.4,30.06,ENE,68,0.0,0.0,79,0.00,CLR,SKC,0.26,WeatherDisplay:10.37,2013-06-13 02:32:00,
2013-06-13 04:37:00,57.4,50.9,30.06,East,90,0.0,0.0,79,0.00,CLR,SKC,0.26,WeatherDisplay:10.37,2013-06-13 02:37:00,
2013-06-13 04:42:00,57.2,51.1,30.06,East,90,0.0,0.0,80,0.00,CLR,SKC,0.26,WeatherDisplay:10.37,2013-06-13 02:42:00,
2013-06-13 04:47:00,56.8,51.1,30.06,East,90,0.0,0.0,81,0.00,CLR,SKC,0.26,WeatherDisplay:10.37,2013-06-13 02:47:00,
2013-06-13 04:52:00,56.5,51.1,30.06,East,90,0.0,0.0,82,0.00,CLR,SKC,0.26,WeatherDisplay:10.37,2013-06-13 02:52:00,
2013-06-13 04:57:00,56.1,50.7,30.06,East,90,0.0,0.0,82,0.00,CLR,SKC,0.26,WeatherDisplay:10.37,2013-06-13 02:57:00,
2013-06-13 05:02:00,55.9,50.9,30.06,East,90,0.0,0.0,83,0.00,CLR,SKC,0.26,WeatherDisplay:10.37,2013-06-13 03:02:00,
2013-06-13 05:07:00,55.9,50.9,30.06,East,90,0.0,0.0,83,0.00,CLR,SKC,0.26,WeatherDisplay:10.37,2013-06-13 03:07:00,
2013-06-13 05:12:00,55.9,51.2,30.06,East,90,0.0,0.0,84,0.00,CLR,SKC,0.26,WeatherDisplay:10.37,2013-06-13 03:12:00,
2013-06-13 05:17:00,55.6,50.8,30.06,East,90,0.0,0.0,84,0.00,CLR,SKC,0.26,WeatherDisplay:10.37,2013-06-13 03:17:00,
2013-06-13 05:22:00,55.6,51.1,30.06,East,90,0.0,0.0,85,0.00,CLR,SKC,0.26,WeatherDisplay:10.37,2013-06-13 03:22:00,
2013-06-13 05:27:00,55.4,51.0,30.07,East,90,0.0,0.0,85,0.00,CLR,SKC,0.26,WeatherDisplay:10.37,2013-06-13 03:27:00,
2013-06-13 05:32:00,55.4,51.3,30.06,East,90,0.0,0.0,86,0.00,CLR,SKC,0.26,WeatherDisplay:10.37,2013-06-13 03:32:00,
2013-06-13 05:37:00,55.4,51.3,30.06,East,96,0.0,0.0,86,0.00,CLR,SKC,0.26,WeatherDisplay:10.37,2013-06-13 03:37:00,
2013-06-13 05:42:00,55.6,51.5,30.06,SE,135,0.0,0.0,86,0.00,CLR,SKC,0.26,WeatherDisplay:10.37,2013-06-13 03:42:00,
2013-06-13 05:47:00,55.8,52.0,30.06,SSE,158,0.0,0.0,87,0.00,CLR,SKC,0.26,WeatherDisplay:10.37,2013-06-13 03:47:00,
2013-06-13 05:52:00,55.8,52.0,30.06,SSE,154,0.0,0.0,87,0.00,CLR,SKC,0.26,WeatherDisplay:10.37,2013-06-13 03:52:00,
2013-06-13 05:57:00,55.9,52.1,30.06,SE,137,0.0,0.0,87,0.00,CLR,SKC,0.26,WeatherDisplay:10.37,2013-06-13 03:57:00,
2013-06-13 06:01:00,55.9,52.4,30.07,ESE,112,0.0,0.0,88,0.00,CLR,SKC,0.26,WeatherDisplay:10.37,2013-06-13 04:01:00,
2013-06-13 06:02:00,56.3,52.8,30.07,ESE,112,0.0,0.0,88,0.00,CLR,SKC,0.26,WeatherDisplay:10.37,2013-06-13 04:02:00,
2013-06-13 06:07:00,56.5,53.0,30.07,ESE,112,0.0,0.0,88,0.00,CLR,SKC,0.26,WeatherDisplay:10.37,2013-06-13 04:07:00,
2013-06-13 06:12:00,57.0,53.5,30.07,ESE,112,0.0,0.0,88,0.00,CLR,SKC,0.26,WeatherDisplay:10.37,2013-06-13 04:12:00,
2013-06-13 06:17:00,57.4,53.9,30.07,ESE,112,0.0,0.0,88,0.00,CLR,SKC,0.26,WeatherDisplay:10.37,2013-06-13 04:17:00,
2013-06-13 06:22:00,57.7,54.2,30.07,ESE,112,0.0,0.0,88,0.00,CLR,SKC,0.26,WeatherDisplay:10.37,2013-06-13 04:22:00,
2013-06-13 06:27:00,58.1,54.6,30.07,SE,135,0.0,0.0,88,0.00,CLR,SKC,0.26,WeatherDisplay:10.37,2013-06-13 04:27:00,
2013-06-13 06:32:00,58.3,54.7,30.07,ESE,112,0.0,0.0,88,0.00,CLR,SKC,0.26,WeatherDisplay:10.37,2013-06-13 04:32:00,
2013-06-13 06:37:00,59.2,55.3,30.07,ESE,112,0.0,0.0,87,0.00,CLR,SKC,0.26,WeatherDisplay:10.37,2013-06-13 04:37:00,
2013-06-13 06:42:00,60.1,55.9,30.07,ESE,112,0.0,0.0,86,0.00,CLR,SKC,0.26,WeatherDisplay:10.37,2013-06-13 04:42:00,
2013-06-13 06:47:00,60.4,56.2,30.07,ESE,112,0.0,0.0,86,0.00,CLR,SKC,0.26,WeatherDisplay:10.37,2013-06-13 04:47:00,
2013-06-13 06:52:00,61.3,56.8,30.07,ENE,68,0.0,0.0,85,0.00,CLR,SKC,0.26,WeatherDisplay:10.37,2013-06-13 04:52:00,
2013-06-13 06:57:00,61.7,56.8,30.08,NE,45,0.9,1.2,84,0.00,CLR,SKC,0.26,WeatherDisplay:10.37,2013-06-13 04:57:00,
2013-06-13 07:02:00,62.6,57.0,30.08,NNE,22,0.0,0.0,82,0.00,CLR,SKC,0.26,WeatherDisplay:10.37,2013-06-13 05:02:00,
2013-06-13 07:07:00,63.7,57.0,30.08,NNW,338,0.0,0.0,79,0.00,CLR,SKC,0.26,WeatherDisplay:10.37,2013-06-13 05:07:00,
2013-06-13 07:12:00,65.1,58.4,30.07,NW,315,0.2,1.2,79,0.00,CLR,SKC,0.26,WeatherDisplay:10.37,2013-06-13 05:12:00,
2013-06-13 07:17:00,66.4,58.2,30.07,NW,315,1.3,2.3,75,0.00,CLR,SKC,0.26,WeatherDisplay:10.37,2013-06-13 05:17:00,
2013-06-13 07:25:00,67.7,58.0,30.07,NNW,328,1.0,2.0,71,0.00,CLR,SKC,0.26,WeatherDisplay:10.37,2013-06-13 05:25:00,
2013-06-13 07:30:00,68.2,57.2,30.07,North,7,3.0,4.0,68,0.00,CLR,SKC,0.26,WeatherDisplay:10.37,2013-06-13 05:30:00,
2013-06-13 07:35:00,69.2,57.8,30.07,NNE,30,1.0,3.0,67,0.00,CLR,SKC,0.26,WeatherDisplay:10.37,2013-06-13 05:35:00,
2013-06-13 07:40:00,70.0,58.1,30.08,ENE,68,0.0,2.3,66,0.00,CLR,SKC,0.26,WeatherDisplay:10.37,2013-06-13 05:40:00,
2013-06-13 07:45:00,70.2,57.0,30.07,North,0,0.0,2.3,63,0.00,CLR,SKC,0.26,WeatherDisplay:10.37,2013-06-13 05:45:00,
2013-06-13 07:50:00,70.5,57.3,30.07,East,90,1.6,3.5,63,0.00,CLR,SKC,0.26,WeatherDisplay:10.37,2013-06-13 05:50:00,
2013-06-13 07:55:00,70.7,56.6,30.08,WNW,292,4.0,4.0,61,0.00,CLR,SKC,0.26,WeatherDisplay:10.37,2013-06-13 05:55:00,
2013-06-13 08:00:00,70.5,56.0,30.08,NW,315,0.9,1.2,60,0.00,CLR,SKC,0.26,WeatherDisplay:10.37,2013-06-13 06:00:00,
2013-06-13 08:05:00,71.2,56.6,30.08,NNW,338,0.0,0.0,60,0.00,RA,SKC,0.00,WeatherDisplay:10.37,2013-06-13 06:05:00,
2013-06-13 08:10:00,71.2,56.6,30.08,WNW,292,4.3,4.9,60,0.00,RA,SKC,0.00,WeatherDisplay:10.37,2013-06-13 06:10:00,
2013-06-13 08:15:00,71.2,55.7,30.08,NW,313,3.0,5.0,58,0.00,CLR,SKC,0.00,WeatherDisplay:10.37,2013-06-13 06:15:00,
2013-06-13 08:20:00,71.2,56.2,30.07,North,0,1.3,1.3,59,0.00,CLR,SKC,0.00,WeatherDisplay:10.37,2013-06-13 06:20:00,
2013-06-13 08:25:00,70.9,56.3,30.07,NNW,337,2.0,3.0,60,0.00,CLR,SKC,0.00,WeatherDisplay:10.37,2013-06-13 06:25:00,
2013-06-13 08:30:00,70.7,55.2,30.07,NNE,22,6.0,6.0,58,0.00,CLR,SKC,0.00,WeatherDisplay:10.37,2013-06-13 06:30:00,
2013-06-13 08:35:00,70.9,55.8,30.08,NNE,14,2.0,2.0,59,0.00,CLR,SKC,0.00,WeatherDisplay:10.37,2013-06-13 06:35:00,
2013-06-13 08:40:00,71.4,56.8,30.08,WNW,292,0.8,3.5,60,0.00,CLR,SKC,0.00,WeatherDisplay:10.37,2013-06-13 06:40:00,
2013-06-13 08:45:00,71.7,56.6,30.07,NNW,341,7.0,8.0,59,0.00,CLR,SKC,0.00,WeatherDisplay:10.37,2013-06-13 06:45:00,
2013-06-13 08:50:00,71.8,55.7,30.07,West,270,1.3,1.3,57,0.00,CLR,SKC,0.00,WeatherDisplay:10.37,2013-06-13 06:50:00,
2013-06-13 08:55:00,72.0,56.4,30.07,NE,44,7.0,7.0,58,0.00,CLR,SKC,0.00,WeatherDisplay:10.37,2013-06-13 06:55:00,
2013-06-13 09:00:00,72.0,55.9,30.08,North,11,2.0,7.0,57,0.00,CLR,SKC,0.00,WeatherDisplay:10.37,2013-06-13 07:00:00,
2013-06-13 09:05:00,72.0,56.4,30.08,NNW,327,1.0,3.0,58,0.00,CLR,SKC,0.00,WeatherDisplay:10.37,2013-06-13 07:05:00,
2013-06-13 09:10:00,72.1,56.5,30.08,East,99,0.0,2.0,58,0.00,CLR,SKC,0.00,WeatherDisplay:10.37,2013-06-13 07:10:00,
2013-06-13 09:15:00,72.3,56.7,30.07,NE,38,0.0,3.0,58,0.00,CLR,SKC,0.00,WeatherDisplay:10.37,2013-06-13 07:15:00,
2013-06-13 09:20:00,72.3,56.2,30.07,NNW,333,2.0,2.0,57,0.00,CLR,SKC,0.00,WeatherDisplay:10.37,2013-06-13 07:20:00,
2013-06-13 09:25:00,72.3,56.2,30.07,NNE,22,4.5,6.9,57,0.00,CLR,SKC,0.00,WeatherDisplay:10.37,2013-06-13 07:25:00,
2013-06-13 09:30:00,72.4,55.8,30.08,NNE,22,3.0,5.0,56,0.00,CLR,SKC,0.00,WeatherDisplay:10.37,2013-06-13 07:30:00,
2013-06-13 09:35:00,72.7,56.1,30.07,NE,50,3.0,4.0,56,0.00,CLR,SKC,0.00,WeatherDisplay:10.37,2013-06-13 07:35:00,
2013-06-13 09:40:00,72.7,55.6,30.08,NE,46,8.0,8.0,55,0.00,CLR,SKC,0.00,WeatherDisplay:10.37,2013-06-13 07:40:00,
2013-06-13 09:45:00,73.0,56.4,30.08,NNE,28,0.0,0.0,56,0.00,CLR,SKC,0.00,WeatherDisplay:10.37,2013-06-13 07:45:00,
2013-06-13 09:50:00,73.6,57.4,30.07,NNE,23,6.0,7.0,57,0.00,CLR,SKC,0.00,WeatherDisplay:10.37,2013-06-13 07:50:00,
2013-06-13 09:55:00,73.6,57.4,30.07,NE,44,7.0,7.0,57,0.00,CLR,SKC,0.00,WeatherDisplay:10.37,2013-06-13 07:55:00,
2013-06-13 10:00:00,73.5,57.4,30.07,NNE,24,2.0,2.0,57,0.00,CLR,SKC,0.00,WeatherDisplay:10.37,2013-06-13 08:00:00,
2013-06-13 10:05:00,73.9,57.7,30.07,North,6,0.0,8.0,57,0.00,CLR,SKC,0.00,WeatherDisplay:10.37,2013-06-13 08:05:00,
2013-06-13 10:10:00,74.3,58.1,30.07,NE,54,2.0,6.0,57,0.00,CLR,SKC,0.00,WeatherDisplay:10.37,2013-06-13 08:10:00,
2013-06-13 10:15:00,74.3,57.6,30.07,NNE,32,2.0,5.0,56,0.00,CLR,SKC,0.00,WeatherDisplay:10.37,2013-06-13 08:15:00,
2013-06-13 10:20:00,74.5,56.7,30.07,North,0,2.0,2.0,54,0.00,CLR,SKC,0.00,WeatherDisplay:10.37,2013-06-13 08:20:00,
2013-06-13 10:25:00,74.8,58.1,30.07,North,7,3.0,4.0,56,0.00,CLR,SKC,0.00,WeatherDisplay:10.37,2013-06-13 08:25:00,
2013-06-13 10:30:00,75.0,57.8,30.07,NNE,28,1.0,1.0,55,0.00,CLR,SKC,0.00,WeatherDisplay:10.37,2013-06-13 08:30:00,
2013-06-13 10:35:00,75.0,57.8,30.07,NE,46,1.0,1.0,55,0.00,CLR,SKC,0.00,WeatherDisplay:10.37,2013-06-13 08:35:00,
2013-06-13 10:40:00,75.4,57.6,30.06,NE,46,2.0,2.0,54,0.00,CLR,SKC,0.00,WeatherDisplay:10.37,2013-06-13 08:40:00,
2013-06-13 10:45:00,75.5,57.7,30.06,NE,43,2.0,2.0,54,0.00,CLR,SKC,0.00,WeatherDisplay:10.37,2013-06-13 08:45:00,
2013-06-13 10:50:00,75.4,57.6,30.06,NE,45,3.0,5.0,54,0.00,CLR,SKC,0.00,WeatherDisplay:10.37,2013-06-13 08:50:00,
2013-06-13 10:55:00,75.7,58.4,30.07,NE,38,2.0,3.0,55,0.00,CLR,SKC,0.00,WeatherDisplay:10.37,2013-06-13 08:55:00,
2013-06-13 11:00:00,75.7,58.9,30.07,NNE,22,0.0,8.0,56,0.00,CLR,SKC,0.00,WeatherDisplay:10.37,2013-06-13 09:00:00,
2013-06-13 11:05:00,75.7,56.9,30.06,NNE,33,5.0,8.0,52,0.00,CLR,SKC,0.00,WeatherDisplay:10.37,2013-06-13 09:05:00,
2013-06-13 11:10:00,75.9,57.6,30.06,NE,37,5.0,6.0,53,0.00,CLR,SKC,0.00,WeatherDisplay:10.37,2013-06-13 09:10:00,
2013-06-13 11:15:00,76.1,58.2,30.07,NE,49,1.0,0.0,54,0.00,CLR,SKC,0.00,WeatherDisplay:10.37,2013-06-13 09:15:00,
2013-06-13 11:20:00,76.1,57.7,30.06,NE,46,1.0,1.0,53,0.00,CLR,SKC,0.00,WeatherDisplay:10.37,2013-06-13 09:20:00,
2013-06-13 11:25:00,76.6,58.2,30.06,NW,316,3.0,5.0,53,0.00,CLR,SKC,0.00,WeatherDisplay:10.37,2013-06-13 09:25:00,
2013-06-13 11:30:00,77.2,59.8,30.06,NW,316,1.0,0.0,55,0.00,CLR,SKC,0.00,WeatherDisplay:10.37,2013-06-13 09:30:00,
2013-06-13 11:35:00,77.2,59.8,30.06,NW,314,0.0,0.0,55,0.00,CLR,SKC,0.00,WeatherDisplay:10.37,2013-06-13 09:35:00,
2013-06-13 11:40:00,77.2,59.8,30.06,WNW,292,0.0,0.0,55,0.00,CLR,SKC,0.00,WeatherDisplay:10.37,2013-06-13 09:40:00,
2013-06-13 11:45:00,77.2,59.8,30.06,WNW,293,0.0,0.0,55,0.00,CLR,SKC,0.00,WeatherDisplay:10.37,2013-06-13 09:45:00,
2013-06-13 11:50:00,77.2,59.8,30.06,WNW,294,0.0,0.0,55,0.00,FEW,SKC,0.00,WeatherDisplay:10.37,2013-06-13 09:50:00,
2013-06-13 11:55:00,77.4,58.9,30.06,North,0,0.4,1.2,53,0.00,FEW,SKC,0.00,WeatherDisplay:10.37,2013-06-13 09:55:00,
2013-06-13 12:00:00,77.5,59.1,30.06,West,270,0.0,0.0,53,0.00,FEW,SKC,0.00,WeatherDisplay:10.37,2013-06-13 10:00:00,
2013-06-13 12:05:00,77.5,59.1,30.06,West,270,0.0,0.0,53,0.00,FEW,SKC,0.00,WeatherDisplay:10.37,2013-06-13 10:05:00,
2013-06-13 12:10:00,77.9,58.9,30.06,NNE,22,0.6,3.5,52,0.00,FEW,SKC,0.00,WeatherDisplay:10.37,2013-06-13 10:10:00,
2013-06-13 12:15:00,78.1,57.9,30.06,NNE,22,0.0,0.0,50,0.00,FEW,SKC,0.00,WeatherDisplay:10.37,2013-06-13 10:15:00,
2013-06-13 12:20:00,78.6,59.5,30.05,ESE,112,1.5,2.3,52,0.00,FEW,SKC,0.00,WeatherDisplay:10.37,2013-06-13 10:20:00,
2013-06-13 12:25:00,78.6,56.7,30.06,East,90,2.9,5.8,47,0.00,FEW,SKC,0.00,WeatherDisplay:10.37,2013-06-13 10:25:00,
2013-06-13 12:30:00,78.4,58.3,30.06,ENE,68,1.6,3.5,50,0.00,FEW,SKC,0.00,WeatherDisplay:10.37,2013-06-13 10:30:00,
2013-06-13 12:35:00,78.4,58.3,30.06,ENE,68,1.3,1.3,50,0.00,FEW,SKC,0.00,WeatherDisplay:10.37,2013-06-13 10:35:00,
2013-06-13 12:40:00,78.4,57.7,30.05,NW,315,1.5,1.5,49,0.00,FEW,SKC,0.00,WeatherDisplay:10.37,2013-06-13 10:40:00,
2013-06-13 12:45:00,78.4,58.3,30.05,North,0,2.7,6.9,50,0.00,FEW,SKC,0.00,WeatherDisplay:10.37,2013-06-13 10:45:00,
2013-06-13 12:50:00,78.4,57.1,30.05,NNW,338,3.6,3.6,48,0.00,CLR,SKC,0.00,WeatherDisplay:10.37,2013-06-13 10:50:00,
2013-06-13 12:55:00,79.0,58.8,30.05,NE,45,0.0,2.2,50,0.00,CLR,SKC,0.00,WeatherDisplay:10.37,2013-06-13 10:55:00,
2013-06-13 13:00:00,79.5,59.2,30.05,NE,45,0.0,0.0,50,0.00,CLR,SKC,0.00,WeatherDisplay:10.37,2013-06-13 11:00:00,
2013-06-13 13:05:00,79.9,58.4,30.05,NNE,22,2.5,4.6,48,0.00,CLR,SKC,0.00,WeatherDisplay:10.37,2013-06-13 11:05:00,
2013-06-13 13:10:00,80.1,58.0,30.04,North,0,2.5,2.5,47,0.00,CLR,SKC,0.00,WeatherDisplay:10.37,2013-06-13 11:10:00,
2013-06-13 13:15:00,80.2,58.2,30.05,SSW,202,1.1,1.2,47,0.00,CLR,SKC,0.00,WeatherDisplay:10.37,2013-06-13 11:15:00,
2013-06-13 13:20:00,80.1,58.6,30.04,NNW,338,1.1,3.5,48,0.00,CLR,SKC,0.00,WeatherDisplay:10.37,2013-06-13 11:20:00,
2013-06-13 13:26:00,80.4,58.9,30.04,NNE,22,2.1,5.8,48,0.00,CLR,SKC,0.00,WeatherDisplay:10.37,2013-06-13 11:26:00,
2013-06-13 13:31:00,80.4,58.3,30.04,WSW,248,0.4,3.5,47,0.00,CLR,SKC,0.00,WeatherDisplay:10.37,2013-06-13 11:31:00,
2013-06-13 13:36:00,80.4,57.1,30.04,NE,45,2.2,2.3,45,0.00,CLR,SKC,0.00,WeatherDisplay:10.37,2013-06-13 11:36:00,
2013-06-13 13:41:00,81.1,58.4,30.04,NNE,22,0.0,0.9,46,0.00,CLR,SKC,0.00,WeatherDisplay:10.37,2013-06-13 11:41:00,
2013-06-13 13:46:00,81.3,59.2,30.04,North,0,1.9,4.6,47,0.00,CLR,SKC,0.00,WeatherDisplay:10.37,2013-06-13 11:46:00,
2013-06-13 13:51:00,81.0,58.2,30.04,East,90,2.1,2.3,46,0.00,CLR,SKC,0.00,WeatherDisplay:10.37,2013-06-13 11:51:00,
2013-06-13 13:56:00,81.0,58.2,30.04,East,90,0.0,0.0,46,0.00,CLR,SKC,0.00,WeatherDisplay:10.37,2013-06-13 11:56:00,
2013-06-13 14:01:00,80.8,58.7,30.04,NNE,22,1.2,2.3,47,0.00,CLR,SKC,0.00,WeatherDisplay:10.37,2013-06-13 12:01:00,
2013-06-13 14:06:00,81.1,59.0,30.04,NNW,338,2.7,2.7,47,0.00,CLR,SKC,0.00,WeatherDisplay:10.37,2013-06-13 12:06:00,
2013-06-13 14:11:00,81.3,59.2,30.04,NNE,22,4.5,4.6,47,0.00,CLR,SKC,0.00,WeatherDisplay:10.37,2013-06-13 12:11:00,
2013-06-13 14:16:00,80.2,55.1,30.04,East,90,0.7,1.2,42,0.00,CLR,SKC,0.00,WeatherDisplay:10.37,2013-06-13 12:16:00,
2013-06-13 14:21:00,79.3,56.8,30.04,East,90,1.4,3.5,46,0.00,CLR,SKC,0.00,WeatherDisplay:10.37,2013-06-13 12:21:00,
2013-06-13 14:26:00,78.1,56.2,30.03,NNW,338,0.3,1.2,47,0.00,CLR,SKC,0.00,WeatherDisplay:10.37,2013-06-13 12:26:00,
2013-06-13 14:31:00,78.4,56.5,30.03,South,180,0.0,0.0,47,0.00,CLR,SKC,0.00,WeatherDisplay:10.37,2013-06-13 12:31:00,
2013-06-13 14:36:00,79.7,57.1,30.03,NNE,22,0.0,5.4,46,0.00,CLR,SKC,0.00,WeatherDisplay:10.37,2013-06-13 12:36:00,
2013-06-13 14:41:00,79.9,56.6,30.03,North,0,1.8,2.3,45,0.00,CLR,SKC,0.00,WeatherDisplay:10.37,2013-06-13 12:41:00,
2013-06-13 14:46:00,79.9,58.4,30.03,NNW,338,0.0,0.0,48,0.00,CLR,SKC,0.00,WeatherDisplay:10.37,2013-06-13 12:46:00,
2013-06-13 14:51:00,78.6,58.4,30.03,West,270,0.0,0.0,50,0.00,CLR,SKC,0.00,WeatherDisplay:10.37,2013-06-13 12:51:00,
2013-06-13 14:56:00,79.0,59.3,30.03,NW,315,0.0,0.0,51,0.00,CLR,SKC,0.00,WeatherDisplay:10.37,2013-06-13 12:56:00,
2013-06-13 15:01:00,80.2,59.3,30.03,ESE,112,0.0,0.0,49,0.00,CLR,SKC,0.00,WeatherDisplay:10.37,2013-06-13 13:01:00,
2013-06-13 15:06:00,80.6,59.7,30.03,NNE,22,0.0,0.0,49,0.00,CLR,SKC,0.00,WeatherDisplay:10.37,2013-06-13 13:06:00,
2013-06-13 15:11:00,81.0,58.2,30.03,North,0,1.8,2.3,46,0.00,CLR,SKC,0.00,WeatherDisplay:10.37,2013-06-13 13:11:00,
2013-06-13 15:16:00,80.4,56.5,30.03,North,0,2.4,2.4,44,0.00,CLR,SKC,0.00,WeatherDisplay:10.37,2013-06-13 13:16:00,
2013-06-13 15:21:00,80.2,57.0,30.03,NNE,22,0.9,1.2,45,0.00,CLR,SKC,0.00,WeatherDisplay:10.37,2013-06-13 13:21:00,
2013-06-13 15:26:00,79.5,57.5,30.03,North,0,0.0,0.0,47,0.00,CLR,SKC,0.00,WeatherDisplay:10.37,2013-06-13 13:26:00,
2013-06-13 15:31:00,79.5,56.9,30.02,WNW,292,4.0,4.0,46,0.00,CLR,SKC,0.00,WeatherDisplay:10.37,2013-06-13 13:31:00,
2013-06-13 15:36:00,80.1,55.5,30.02,NNE,22,2.0,2.3,43,0.00,CLR,SKC,0.00,WeatherDisplay:10.37,2013-06-13 13:36:00,
2013-06-13 15:41:00,80.1,55.5,30.02,NNE,22,2.0,2.3,43,0.00,CLR,SKC,0.00,WeatherDisplay:10.37,2013-06-13 13:41:00,
2013-06-13 15:46:00,80.8,57.5,30.01,WNW,292,1.3,3.6,45,0.00,CLR,SKC,0.00,WeatherDisplay:10.37,2013-06-13 13:46:00,
2013-06-13 15:51:00,80.8,57.5,30.00,NNE,22,6.3,6.3,45,0.00,CLR,SKC,0.00,WeatherDisplay:10.37,2013-06-13 13:51:00,
2013-06-13 15:56:00,80.8,58.1,30.01,ESE,112,1.3,2.3,46,0.00,CLR,SKC,0.00,WeatherDisplay:10.37,2013-06-13 13:56:00,
2013-06-13 16:01:00,80.4,55.9,30.01,North,0,1.4,2.3,43,0.00,CLR,SKC,0.00,WeatherDisplay:10.37,2013-06-13 14:01:00,
2013-06-13 16:06:00,80.2,57.0,30.01,East,90,1.3,1.3,45,0.00,CLR,SKC,0.00,WeatherDisplay:10.37,2013-06-13 14:06:00,
2013-06-13 16:11:00,80.2,57.0,30.01,East,90,1.3,1.3,45,0.00,CLR,SKC,0.00,WeatherDisplay:10.37,2013-06-13 14:11:00,
2013-06-13 16:16:00,79.7,55.9,30.01,East,90,0.7,1.2,44,0.00,CLR,SKC,0.00,WeatherDisplay:10.37,2013-06-13 14:16:00,
2013-06-13 16:21:00,79.5,56.9,30.01,East,90,0.2,0.0,46,0.00,CLR,SKC,0.00,WeatherDisplay:10.37,2013-06-13 14:21:00,
2013-06-13 16:26:00,79.5,56.9,30.00,NNE,22,1.8,2.9,46,0.00,CLR,SKC,0.00,WeatherDisplay:10.37,2013-06-13 14:26:00,
2013-06-13 16:31:00,79.0,54.6,30.00,NE,45,1.0,2.3,43,0.00,CLR,SKC,0.00,WeatherDisplay:10.37,2013-06-13 14:31:00,
2013-06-13 16:36:00,79.0,55.2,30.00,WNW,292,1.0,1.2,44,0.00,CLR,SKC,0.00,WeatherDisplay:10.37,2013-06-13 14:36:00,
2013-06-13 16:41:00,79.3,56.8,30.01,NW,315,0.0,1.2,46,0.00,CLR,SKC,0.00,WeatherDisplay:10.37,2013-06-13 14:41:00,
2013-06-13 16:46:00,79.2,55.4,30.00,NNE,22,0.0,0.0,44,0.00,CLR,SKC,0.00,WeatherDisplay:10.37,2013-06-13 14:46:00,
2013-06-13 16:51:00,78.8,55.7,30.00,NNE,22,2.7,2.7,45,0.00,CLR,SKC,0.00,WeatherDisplay:10.37,2013-06-13 14:51:00,
2013-06-13 16:56:00,78.4,54.7,30.00,ENE,68,0.0,0.0,44,0.00,CLR,SKC,0.00,WeatherDisplay:10.37,2013-06-13 14:56:00,
2013-06-13 17:01:00,78.4,55.3,30.00,East,90,0.0,0.0,45,0.00,CLR,SKC,0.00,WeatherDisplay:10.37,2013-06-13 15:01:00,
2013-06-13 17:06:00,78.6,55.5,29.99,WNW,292,0.9,1.2,45,0.00,CLR,SKC,0.00,WeatherDisplay:10.37,2013-06-13 15:06:00,
2013-06-13 17:11:00,78.6,54.9,29.99,East,90,0.0,0.0,44,0.00,CLR,SKC,0.00,WeatherDisplay:10.37,2013-06-13 15:11:00,
2013-06-13 17:16:00,78.6,55.5,29.99,North,0,0.0,0.0,45,0.00,CLR,SKC,0.00,WeatherDisplay:10.37,2013-06-13 15:16:00,
2013-06-13 17:21:00,78.4,55.9,29.99,North,0,0.1,1.1,46,0.00,CLR,SKC,0.00,WeatherDisplay:10.37,2013-06-13 15:21:00,
2013-06-13 17:26:00,78.6,56.7,29.99,NNW,338,1.3,1.3,47,0.00,CLR,SKC,0.00,WeatherDisplay:10.37,2013-06-13 15:26:00,
2013-06-13 17:31:00,78.8,55.7,29.99,SE,135,0.0,0.0,45,0.00,CLR,SKC,0.00,WeatherDisplay:10.37,2013-06-13 15:31:00,
2013-06-13 17:36:00,78.6,55.5,29.99,WNW,292,0.0,0.0,45,0.00,CLR,SKC,0.00,WeatherDisplay:10.37,2013-06-13 15:36:00,
2013-06-13 17:41:00,78.4,56.5,29.99,WNW,292,0.9,1.8,47,0.00,CLR,SKC,0.00,WeatherDisplay:10.37,2013-06-13 15:41:00,
2013-06-13 17:46:00,78.6,56.1,29.99,West,270,0.0,0.0,46,0.00,CLR,SKC,0.00,WeatherDisplay:10.37,2013-06-13 15:46:00,
2013-06-13 17:51:00,78.6,57.3,29.99,NW,315,1.8,2.3,48,0.00,CLR,SKC,0.00,WeatherDisplay:10.37,2013-06-13 15:51:00,
2013-06-13 17:56:00,78.6,57.3,29.99,NW,315,0.8,1.2,48,0.00,CLR,SKC,0.00,WeatherDisplay:10.37,2013-06-13 15:56:00,
2013-06-13 18:01:00,78.6,57.3,29.99,NW,315,0.9,1.2,48,0.00,CLR,SKC,0.00,WeatherDisplay:10.37,2013-06-13 16:01:00,
2013-06-13 18:06:00,78.4,56.5,29.99,WNW,292,0.0,0.0,47,0.00,CLR,SKC,0.00,WeatherDisplay:10.37,2013-06-13 16:06:00,
2013-06-13 18:11:00,77.2,57.7,29.99,West,270,0.0,0.9,51,0.00,CLR,SKC,0.00,WeatherDisplay:10.37,2013-06-13 16:11:00,
2013-06-13 18:16:00,77.0,58.0,29.99,WNW,292,0.0,0.0,52,0.00,CLR,SKC,0.00,WeatherDisplay:10.37,2013-06-13 16:16:00,
2013-06-13 18:21:00,77.0,58.0,29.99,WNW,292,0.0,0.0,52,0.00,CLR,SKC,0.00,WeatherDisplay:10.37,2013-06-13 16:21:00,
2013-06-13 18:26:00,77.4,58.4,29.99,WNW,292,0.0,0.0,52,0.00,CLR,SKC,0.00,WeatherDisplay:10.37,2013-06-13 16:26:00,
2013-06-13 18:31:00,77.2,58.7,29.99,NNW,338,0.0,0.0,53,0.00,CLR,SKC,0.00,WeatherDisplay:10.37,2013-06-13 16:31:00,
2013-06-13 18:36:00,77.2,58.2,29.99,WNW,292,0.0,0.0,52,0.00,CLR,SKC,0.00,WeatherDisplay:10.37,2013-06-13 16:36:00,
2013-06-13 18:41:00,76.8,58.9,29.99,West,270,0.0,0.0,54,0.00,CLR,SKC,0.00,WeatherDisplay:10.37,2013-06-13 16:41:00,
2013-06-13 18:46:00,76.8,57.9,29.98,NW,315,0.0,0.0,52,0.00,CLR,SKC,0.00,WeatherDisplay:10.37,2013-06-13 16:46:00,
2013-06-13 18:51:00,76.6,59.3,29.98,West,270,0.0,0.0,55,0.00,CLR,SKC,0.00,WeatherDisplay:10.37,2013-06-13 16:51:00,
2013-06-13 18:56:00,75.9,59.1,29.98,West,270,0.6,1.2,56,0.00,CLR,SKC,0.00,WeatherDisplay:10.37,2013-06-13 16:56:00,
2013-06-13 19:01:00,75.7,59.4,29.98,WNW,292,0.0,0.0,57,0.00,CLR,SKC,0.00,WeatherDisplay:10.37,2013-06-13 17:01:00,
2013-06-13 19:06:00,75.0,59.2,29.98,WNW,292,0.0,0.0,58,0.00,CLR,SKC,0.00,WeatherDisplay:10.37,2013-06-13 17:06:00,
2013-06-13 19:11:00,74.1,58.9,29.98,WNW,292,0.0,0.0,59,0.00,CLR,SKC,0.00,WeatherDisplay:10.37,2013-06-13 17:11:00,
2013-06-13 19:16:00,73.8,59.0,29.98,WNW,292,0.0,0.0,60,0.00,CLR,SKC,0.00,WeatherDisplay:10.37,2013-06-13 17:16:00,
2013-06-13 19:21:00,73.2,59.0,29.98,West,270,0.0,0.0,61,0.00,CLR,SKC,0.00,WeatherDisplay:10.37,2013-06-13 17:21:00,
2013-06-13 19:26:00,73.2,59.0,29.98,WNW,292,0.0,0.0,61,0.00,CLR,SKC,0.00,WeatherDisplay:10.37,2013-06-13 17:26:00,
2013-06-13 19:31:00,71.8,58.1,29.98,WNW,292,0.0,0.0,62,0.00,CLR,SKC,0.00,WeatherDisplay:10.37,2013-06-13 17:31:00,
2013-06-13 19:36:00,71.2,58.0,29.98,WNW,292,0.0,0.0,63,0.00,CLR,SKC,0.00,WeatherDisplay:10.37,2013-06-13 17:36:00,
2013-06-13 19:41:00,71.2,58.0,29.98,WNW,292,0.0,0.0,63,0.00,CLR,SKC,0.00,WeatherDisplay:10.37,2013-06-13 17:41:00,
2013-06-13 19:46:00,70.3,58.0,29.98,NNW,338,0.0,0.0,65,0.00,CLR,SKC,0.00,WeatherDisplay:10.37,2013-06-13 17:46:00,
2013-06-13 19:51:00,70.0,58.1,29.98,NNW,338,0.0,0.0,66,0.00,CLR,SKC,0.00,WeatherDisplay:10.37,2013-06-13 17:51:00,
2013-06-13 19:56:00,69.6,58.2,29.98,NNW,338,0.0,0.0,67,0.00,CLR,SKC,0.00,WeatherDisplay:10.37,2013-06-13 17:56:00,
2013-06-13 20:01:00,69.4,58.0,29.98,West,270,0.0,0.0,67,0.00,CLR,SKC,0.00,WeatherDisplay:10.37,2013-06-13 18:01:00,
2013-06-13 20:06:00,68.7,58.1,29.98,WNW,292,0.0,0.0,69,0.00,CLR,SKC,0.00,WeatherDisplay:10.37,2013-06-13 18:06:00,
2013-06-13 20:11:00,68.7,58.1,29.98,WNW,292,0.0,0.0,69,0.00,CLR,SKC,0.00,WeatherDisplay:10.37,2013-06-13 18:11:00,
2013-06-13 20:16:00,68.4,58.2,29.98,WNW,292,0.0,0.0,70,0.00,CLR,SKC,0.00,WeatherDisplay:10.37,2013-06-13 18:16:00,
2013-06-13 20:21:00,67.8,57.7,29.98,NW,315,0.0,0.0,70,0.00,CLR,SKC,0.00,WeatherDisplay:10.37,2013-06-13 18:21:00,
2013-06-13 20:26:00,67.8,58.1,29.98,WNW,292,0.0,0.0,71,0.00,CLR,SKC,0.00,WeatherDisplay:10.37,2013-06-13 18:26:00,
2013-06-13 20:31:00,67.6,57.9,29.99,West,270,2.2,2.3,71,0.00,CLR,SKC,0.00,WeatherDisplay:10.37,2013-06-13 18:31:00,
2013-06-13 20:36:00,68.5,58.4,29.98,WNW,292,0.7,3.1,70,0.00,CLR,SKC,0.00,WeatherDisplay:10.37,2013-06-13 18:36:00,
2013-06-13 20:41:00,70.0,58.5,29.99,WNW,292,1.8,2.3,67,0.00,CLR,SKC,0.00,WeatherDisplay:10.37,2013-06-13 18:41:00,
2013-06-13 20:46:00,70.3,58.4,29.99,WSW,248,2.3,2.5,66,0.00,CLR,SKC,0.00,WeatherDisplay:10.37,2013-06-13 18:46:00,
2013-06-13 20:51:00,70.9,58.5,29.99,WNW,292,2.9,3.5,65,0.00,CLR,SKC,0.00,WeatherDisplay:10.37,2013-06-13 18:51:00,
2013-06-13 20:56:00,70.9,58.1,29.99,West,270,2.1,3.5,64,0.00,CLR,SKC,0.00,WeatherDisplay:10.37,2013-06-13 18:56:00,
2013-06-13 21:01:00,71.2,58.0,29.99,NW,315,2.8,4.6,63,0.00,CLR,SKC,0.00,WeatherDisplay:10.37,2013-06-13 19:01:00,
2013-06-13 21:06:00,71.2,58.0,29.99,WNW,292,2.3,4.5,63,0.00,CLR,SKC,0.00,WeatherDisplay:10.37,2013-06-13 19:06:00,
2013-06-13 21:11:00,71.4,57.7,29.99,NW,315,1.8,2.3,62,0.00,CLR,SKC,0.00,WeatherDisplay:10.37,2013-06-13 19:11:00,
2013-06-13 21:16:00,71.4,57.3,29.99,WNW,292,2.5,3.5,61,0.00,CLR,SKC,0.00,WeatherDisplay:10.37,2013-06-13 19:16:00,
2013-06-13 21:21:00,71.4,57.3,29.99,West,270,2.5,4.6,61,0.00,CLR,SKC,0.00,WeatherDisplay:10.37,2013-06-13 19:21:00,
2013-06-13 21:26:00,71.4,57.3,29.99,West,270,3.6,3.6,61,0.00,CLR,SKC,0.00,WeatherDisplay:10.37,2013-06-13 19:26:00,
2013-06-13 21:31:00,71.2,57.1,29.99,West,270,3.0,3.5,61,0.00,CLR,SKC,0.00,WeatherDisplay:10.37,2013-06-13 19:31:00,
2013-06-13 21:36:00,71.2,57.1,29.99,WNW,292,0.0,3.5,61,0.00,CLR,SKC,0.00,WeatherDisplay:10.37,2013-06-13 19:36:00,
2013-06-13 21:41:00,70.8,56.7,30.00,West,276,1.0,2.0,61,0.00,CLR,SKC,0.00,WeatherDisplay:10.37,2013-06-13 19:41:00,
2013-06-13 21:46:00,70.5,56.9,30.00,NNW,338,0.0,0.0,62,0.00,CLR,SKC,0.00,WeatherDisplay:10.37,2013-06-13 19:46:00,
2013-06-13 21:51:00,69.6,56.9,30.00,NW,315,1.8,2.3,64,0.00,CLR,SKC,0.00,WeatherDisplay:10.37,2013-06-13 19:51:00,
2013-06-13 21:56:00,69.4,56.7,30.00,West,270,0.0,0.0,64,0.00,CLR,SKC,0.00,WeatherDisplay:10.37,2013-06-13 19:56:00,
2013-06-13 22:01:00,68.7,56.5,30.00,West,270,0.4,1.2,65,0.00,CLR,SKC,0.00,WeatherDisplay:10.37,2013-06-13 20:01:00,
2013-06-13 22:06:00,68.0,56.6,29.99,NE,45,0.0,0.0,67,0.00,CLR,SKC,0.00,WeatherDisplay:10.37,2013-06-13 20:06:00,
2013-06-13 22:11:00,67.6,56.7,30.00,WSW,248,1.3,2.3,68,0.00,CLR,SKC,0.00,WeatherDisplay:10.37,2013-06-13 20:11:00,
2013-06-13 22:16:00,67.1,56.2,30.00,East,90,0.0,0.0,68,0.00,CLR,SKC,0.00,WeatherDisplay:10.37,2013-06-13 20:16:00,
2013-06-13 22:21:00,66.7,56.2,30.00,ESE,112,0.0,0.0,69,0.00,CLR,SKC,0.00,WeatherDisplay:10.37,2013-06-13 20:21:00,
2013-06-13 22:26:00,66.7,56.2,30.00,SE,135,0.0,0.0,69,0.00,CLR,SKC,0.00,WeatherDisplay:10.37,2013-06-13 20:26:00,
2013-06-13 22:31:00,66.0,56.3,30.00,SE,135,0.0,0.0,71,0.00,CLR,SKC,0.00,WeatherDisplay:10.37,2013-06-13 20:31:00,
2013-06-13 22:36:00,65.8,56.2,30.00,SE,135,0.0,0.0,71,0.00,CLR,SKC,0.00,WeatherDisplay:10.37,2013-06-13 20:36:00,
2013-06-13 22:41:00,65.3,56.4,30.00,SE,135,0.0,0.0,73,0.00,CLR,SKC,0.00,WeatherDisplay:10.37,2013-06-13 20:41:00,
2013-06-13 22:46:00,64.8,55.9,30.00,SE,135,0.0,0.0,73,0.00,CLR,SKC,0.00,WeatherDisplay:10.37,2013-06-13 20:46:00,
2013-06-13 22:51:00,64.2,56.1,30.00,SE,135,0.0,0.0,75,0.00,CLR,SKC,0.00,WeatherDisplay:10.37,2013-06-13 20:51:00,
2013-06-13 22:56:00,64.0,56.3,30.00,SE,135,0.0,0.0,76,0.00,CLR,SKC,0.00,WeatherDisplay:10.37,2013-06-13 20:56:00,
2013-06-13 23:01:00,63.5,56.2,30.00,West,270,0.0,0.0,77,0.00,CLR,SKC,0.00,WeatherDisplay:10.37,2013-06-13 21:01:00,
2013-06-13 23:06:00,63.1,55.8,30.00,West,270,0.0,0.0,77,0.00,CLR,SKC,0.00,WeatherDisplay:10.37,2013-06-13 21:06:00,
2013-06-13 23:11:00,62.8,55.8,30.00,West,270,0.0,0.0,78,0.00,CLR,SKC,0.00,WeatherDisplay:10.37,2013-06-13 21:11:00,
2013-06-13 23:16:00,62.4,55.8,30.00,West,270,0.0,0.0,79,0.00,CLR,SKC,0.00,WeatherDisplay:10.37,2013-06-13 21:16:00,
2013-06-13 23:21:00,62.4,56.2,30.00,WNW,292,0.0,0.0,80,0.00,CLR,SKC,0.00,WeatherDisplay:10.37,2013-06-13 21:21:00,
2013-06-13 23:26:00,62.2,56.0,30.00,WNW,292,0.0,0.0,80,0.00,CLR,SKC,0.00,WeatherDisplay:10.37,2013-06-13 21:26:00,
2013-06-13 23:31:00,61.9,56.0,30.00,West,270,0.0,0.0,81,0.00,CLR,SKC,0.00,WeatherDisplay:10.37,2013-06-13 21:31:00,
2013-06-13 23:36:00,61.5,55.6,30.00,West,270,0.0,0.0,81,0.00,CLR,SKC,0.00,WeatherDisplay:10.37,2013-06-13 21:36:00,
2013-06-13 23:41:00,61.3,55.5,30.00,West,270,0.0,0.0,81,0.00,CLR,SKC,0.00,WeatherDisplay:10.37,2013-06-13 21:41:00,
2013-06-13 23:46:00,61.3,55.5,30.00,West,270,0.0,0.0,81,0.00,CLR,SKC,0.00,WeatherDisplay:10.37,2013-06-13 21:46:00,
2013-06-13 23:51:00,61.2,55.3,30.00,West,270,0.0,0.0,81,0.00,CLR,SKC,0.00,WeatherDisplay:10.37,2013-06-13 21:51:00,
2013-06-13 23:56:00,61.0,55.1,30.00,West,270,0.0,0.0,81,0.00,CLR,SKC,0.00,WeatherDisplay:10.37,2013-06-13 21:56:00,